Regional Weather Roundup
Issued by NWS

Home | Current Version | Previous Version | Text Only | Print | Product List | Glossary On
Versions: 1 2 3 4 5 6 7 8 9 10 11 12 13 14 15 16 17 18 19 20 21 22 23 24 25 26 27 28 29 30 31 32 33 34 35 36 37 38 39 40 41 42 43 44 45 46 47 48 49 50
000
ASUS45 KSLC 230810
RWRUT

UTAH REGIONAL WEATHER ROUNDUP
NATIONAL WEATHER SERVICE SALT LAKE CITY UT
100 AM MST SUN NOV 23 2014

UTZ001>011-023>025-230900-

NORTHERN UTAH

CITY           SKY/WX    TMP DP  RH WIND       PRES   REMARKS
BRIGHAM CITY   CLOUDY    35  31  88 CALM      29.95F
HILL AFB       LGT SNOW  32  32 100 N5        29.94R FOG     WCI  27
LOGAN          CLOUDY    33  32  96 E9        29.93S WCI  25
OGDEN          LGT SNOW  33  32  96 NE8       29.94R FOG     WCI  26
PROVO AIRPORT  CLOUDY    36  32  87 NW12      29.97R WCI  27
SALT LAKE CITY CLOUDY    39  31  72 NW17G23   29.97R WCI  30
VERNAL         MOCLDY    32  30  92 W5        29.82S WCI  27
WENDOVER       CLEAR     37  21  52 NW22      30.04R WCI  27
HEBER CITY     CLOUDY    32  28  86 NE5       29.90S WCI  27
WEST JORDAN    CLOUDY    37  30  75 W18G29    29.97R WCI  27

$$

UTZ012>022-026-027-230900-

SOUTHERN/CENTRAL UTAH

CITY           SKY/WX    TMP DP  RH WIND       PRES   REMARKS
BLANDING       CLOUDY    40  28  60 NW25G33   29.91R WCI  29
BRYCE CANYON   LGT SNOW  30  26  85 NW12      29.96S FOG     WCI  20
CEDAR CITY     CLOUDY    35  33  92 SW3       30.00S
DELTA          CLOUDY    35  33  94 NW7       30.01S WCI  29
MILFORD        LGT RAIN  33  31  92 N6        30.00R WCI  28
MOAB/CYNLANDS  MOCLDY    39  33  79 W7        29.84S WCI  34
PRICE          LGT SNOW  31  28  89 W10       29.88R FOG     WCI  22
ST GEORGE      PTSUNNY   43  21  42 S5        29.97R
KANAB          CLOUDY    45  23  42 S6        29.97F

$$

REGIONAL REPORTS     COLORADO/ARIZONA

CITY           SKY/WX    TMP DP  RH WIND       PRES   REMARKS
CRAIG, CO      CLOUDY    30  26  85 W5        29.79R WCI  25
GRAND JUNCTION CLOUDY    33  33 100 CALM      29.79F
RIFLE          LGT RAIN  35  33  92 W7        29.78F WCI  29
MONTROSE       LGT SNOW  33  32  96 NW7       29.84R FOG     WCI  27
CORTEZ         CLOUDY    35  33  92 NE5       29.83F WCI  31
PAGE, AZ       NOT AVBL
GRAND CANYON   PTCLDY    31  18  58 SW7       29.99F WCI  24
KINGMAN        CLEAR     48  26  42 E6        29.97F
FLAGSTAFF      CLEAR     37  20  50 W16G24    29.99F WCI  28

$$

REGIONAL REPORTS    NEVADA/IDAHO/WYOMING

CITY           SKY/WX    TMP DP  RH WIND       PRES   REMARKS
LAS VEGAS, NV  PTCLDY    64  26  23 N18G25    29.94R
ELY            CLEAR     28  32 100 NW12      30.10R WCI  18
ELKO           CLEAR     31  26  82 W12       30.13R WCI  22
POCATELLO, ID  CLOUDY    34  31  88 W24G31    29.91R WCI  21
BURLEY         PTCLDY    33  27  78 W20G26    29.96R WCI  21
EVANSTON, WY   CLOUDY    25  21  85 W7        29.86F WCI  17
ROCK SPRINGS   PTCLDY    26  21  81 W22       29.80R WCI  12

$$


USA.gov is the U.S. government's official web portal to all federal, state and local government web resources and services.